FW9428 Weather Reports


time (UTC)temp
C
wind
direction
speed
KPH
gust
KPH
rain 1hr
cm
rain 24hr
cm
rain mn
cm
humidity
%
barometer
mb
20260508043729 4 250 0.0 0.0 0.00 0.00 0.00 92 1015.3
20260508043227 4 250 0.0 0.0 0.00 0.00 0.00 92 1015.2
20260508042724 5 252 0.0 0.0 0.00 0.00 0.00 91 1015.2
20260508042221 5 251 0.0 0.0 0.00 0.00 0.00 91 1015.2
20260508041717 5 255 0.0 0.0 0.00 0.00 0.00 90 1015.1
20260508041214 5 256 0.0 0.0 0.00 0.00 0.00 90 1014.9
20260508040711 5 249 0.0 0.0 0.00 0.00 0.00 90 1015.0
20260508040208 5 250 0.0 0.0 0.00 0.00 0.00 89 1014.9
20260508035705 5 253 0.0 0.0 0.00 0.00 0.00 88 1014.9
20260508035203 5 253 0.0 0.0 0.00 0.00 0.00 87 1014.9
20260508034659 5 252 0.0 0.0 0.00 0.00 0.00 86 1015.1
20260508034156 5 249 0.0 0.0 0.00 0.00 0.00 84 1015.0
20260508033653 6 253 0.0 0.0 0.00 0.00 0.00 85 1014.9
20260508033152 6 247 0.0 0.0 0.00 0.00 0.00 84 1014.9
20260508032648 6 248 0.0 0.0 0.00 0.00 0.00 82 1014.7
20260508032146 6 249 0.0 0.0 0.00 0.00 0.00 82 1014.7
20260508031643 7 265 0.0 0.0 0.00 0.00 0.00 81 1014.9
20260508031139 7 239 0.0 0.0 0.00 0.00 0.00 79 1014.8
20260508030635 7 239 0.0 0.0 0.00 0.00 0.00 77 1014.9
20260508030133 8 250 0.0 0.0 0.00 0.00 0.00 75 1014.7
20260508025629 8 251 0.0 0.0 0.00 0.00 0.00 74 1014.7
20260508025127 8 251 0.0 0.0 0.00 0.00 0.00 72 1014.7
20260508024622 10 251 0.0 0.0 0.00 0.00 0.00 66 1014.7
20260508024120 10 242 0.0 0.0 0.00 0.00 0.00 59 1014.3
20260508023615 10 240 0.0 0.0 0.00 0.00 0.00 56 1014.4
20260508023113 10 239 0.0 0.0 0.00 0.00 0.00 57 1014.6
20260508022609 10 234 0.0 0.0 0.00 0.00 0.00 58 1014.4
20260508022107 10 234 0.0 0.0 0.00 0.00 0.00 56 1014.2
20260508021602 10 234 0.0 0.0 0.00 0.00 0.00 60 1014.4
20260508021058 10 232 0.0 0.0 0.00 0.00 0.00 59 1013.9
20260508020556 11 232 0.0 0.0 0.00 0.00 0.00 58 1014.0
20260508020053 10 240 0.0 0.0 0.00 0.00 0.00 57 1013.9
20260508015551 10 225 0.0 0.0 0.00 0.00 0.00 58 1014.0
20260508015047 11 238 0.0 0.0 0.00 0.00 0.00 57 1013.8
20260508014543 10 238 0.0 0.0 0.00 0.00 0.00 56 1013.9
20260508014040 11 238 0.0 0.0 0.00 0.00 0.00 56 1013.8
20260508013536 11 239 0.0 0.0 0.00 0.00 0.00 54 1013.7
20260508013033 11 233 0.0 0.0 0.00 0.00 0.00 56 1013.7
20260508012531 11 234 0.0 0.0 0.00 0.00 0.00 55 1013.5
20260508012028 11 236 0.0 0.0 0.00 0.00 0.00 54 1013.5
20260508011526 11 225 0.0 0.0 0.00 0.00 0.00 50 1013.5
20260508011023 12 250 0.0 0.0 0.00 0.00 0.00 51 1013.2
20260508010520 12 230 0.0 0.0 0.00 0.00 0.00 50 1013.1
20260508010018 13 244 0.0 1.6 0.00 0.00 0.00 45 1013.1
20260508005514 13 225 3.2 3.2 0.00 0.00 0.00 46 1013.0
20260508005011 12 240 1.6 3.2 0.00 0.00 0.00 46 1013.1
20260508004506 12 215 3.2 3.2 0.00 0.00 0.00 46 1013.0
20260508004003 13 249 1.6 3.2 0.00 0.00 0.00 45 1013.0
20260508003500 13 251 0.0 1.6 0.00 0.00 0.00 45 1013.0
20260508002957 13 238 1.6 1.6 0.00 0.00 0.00 45 1012.7
20260508002453 13 238 0.0 1.6 0.00 0.00 0.00 46 1012.9
20260508001950 13 236 1.6 1.6 0.00 0.00 0.00 45 1012.5
20260508001446 13 230 4.8 4.8 0.00 0.00 0.00 44 1012.5
20260508000943 13 247 1.6 3.2 0.00 0.00 0.00 41 1012.3
20260508000438 14 244 1.6 1.6 0.00 0.00 0.00 45 1012.5
20260507235936 14 239 3.2 3.2 0.00 0.00 0.00 43 1012.4
20260507235433 14 246 3.2 3.2 0.00 0.00 0.00 44 1012.2
20260507234930 14 244 1.6 3.2 0.00 0.00 0.00 45 1012.1
20260507234427 15 247 1.6 1.6 0.00 0.00 0.00 43 1012.1
20260507233923 15 230 1.6 1.6 0.00 0.00 0.00 41 1012.0
20260507233420 15 249 4.8 4.8 0.00 0.00 0.00 40 1012.1
20260507232919 15 249 3.2 3.2 0.00 0.00 0.00 42 1011.9
20260507232415 15 248 1.6 3.2 0.00 0.00 0.00 42 1011.9
20260507231912 15 259 4.8 4.8 0.00 0.00 0.00 43 1012.0
20260507231408 15 190 6.4 9.7 0.00 0.00 0.00 41 1011.8
20260507230905 15 178 1.6 3.2 0.00 0.00 0.00 43 1011.8
20260507230402 16 262 1.6 3.2 0.00 0.00 0.00 42 1011.9
20260507225857 16 278 4.8 4.8 0.00 0.00 0.00 44 1011.4
20260507225353 16 267 0.0 0.0 0.00 0.00 0.00 43 1011.6
20260507224849 16 222 1.6 1.6 0.00 0.00 0.00 43 1011.6
20260507224346 16 228 1.6 3.2 0.00 0.00 0.00 44 1011.7
20260507223842 15 244 3.2 3.2 0.00 0.00 0.00 43 1011.6
20260507223338 15 243 3.2 3.2 0.00 0.00 0.00 43 1011.4
20260507222835 15 249 4.8 4.8 0.00 0.00 0.00 44 1011.5
20260507222332 15 234 0.0 1.6 0.00 0.00 0.00 43 1011.4
20260507221829 16 285 4.8 4.8 0.00 0.00 0.00 44 1011.5
20260507221325 16 249 1.6 1.6 0.00 0.00 0.00 42 1011.3
20260507220821 16 209 6.4 8.0 0.00 0.00 0.00 41 1011.4
20260507220320 16 220 1.6 1.6 0.00 0.00 0.00 44 1011.0
20260507215816 16 293 4.8 4.8 0.00 0.00 0.00 41 1011.1
20260507215313 16 257 6.4 9.7 0.00 0.00 0.00 41 1011.1
20260507214810 16 252 3.2 3.2 0.00 0.00 0.00 42 1011.0
20260507214308 16 242 4.8 8.0 0.00 0.00 0.00 43 1011.0
20260507213802 16 256 3.2 3.2 0.00 0.00 0.00 42 1011.0
20260507213300 16 255 4.8 4.8 0.00 0.00 0.00 40 1010.9
20260507212756 17 221 4.8 8.0 0.00 0.00 0.00 41 1011.3
20260507212252 16 267 4.8 4.8 0.00 0.00 0.00 45 1010.9
20260507211749 16 322 4.8 4.8 0.00 0.00 0.00 42 1010.9
20260507211245 16 254 3.2 3.2 0.00 0.00 0.00 40 1010.5
20260507210743 16 233 1.6 3.2 0.00 0.00 0.00 43 1011.0
20260507210239 16 249 1.6 3.2 0.00 0.00 0.00 46 1010.9
20260507205736 16 222 3.2 3.2 0.00 0.00 0.00 43 1010.8
20260507205233 16 248 1.6 3.2 0.00 0.00 0.00 45 1010.8
20260507204729 16 254 4.8 4.8 0.00 0.00 0.00 44 1010.8
20260507204227 17 233 1.6 3.2 0.00 0.00 0.00 43 1010.7
20260507203725 16 256 1.6 1.6 0.00 0.00 0.00 44 1011.1
20260507203222 16 252 1.6 3.2 0.00 0.00 0.00 45 1010.6
20260507202718 16 257 3.2 3.2 0.00 0.00 0.00 44 1010.9
20260507202214 16 251 4.8 4.8 0.00 0.00 0.00 44 1010.9
20260507201709 16 268 3.2 3.2 0.00 0.00 0.00 46 1011.1
20260507201206 16 251 3.2 3.2 0.00 0.00 0.00 45 1011.0
20260507200702 16 272 4.8 4.8 0.00 0.00 0.00 46 1010.7
20260507200158 16 230 3.2 3.2 0.00 0.00 0.00 44 1011.1
20260507195655 17 244 3.2 3.2 0.00 0.00 0.00 42 1011.0
20260507195152 17 199 4.8 4.8 0.00 0.00 0.00 45 1010.9
20260507194649 16 270 3.2 3.2 0.00 0.00 0.00 43 1011.4
20260507194144 17 251 3.2 3.2 0.00 0.00 0.00 47 1011.5
20260507193641 15 254 3.2 3.2 0.00 0.00 0.00 45 1011.6
20260507193139 16 216 3.2 4.8 0.00 0.00 0.00 46 1011.3
20260507192635 16 267 4.8 4.8 0.00 0.00 0.00 44 1011.8
20260507192132 17 250 4.8 4.8 0.00 0.00 0.00 44 1011.7
20260507191627 17 254 3.2 4.8 0.00 0.00 0.00 47 1011.7
20260507191124 17 250 4.8 4.8 0.00 0.00 0.00 46 1011.4
20260507190622 16 270 3.2 4.8 0.00 0.00 0.00 44 1011.8
20260507190121 15 245 1.6 3.2 0.00 0.00 0.00 48 1011.6
20260507185619 16 288 3.2 3.2 0.00 0.00 0.00 46 1011.4
20260507185115 16 248 1.6 3.2 0.00 0.00 0.00 50 1011.6
20260507184613 16 251 3.2 3.2 0.00 0.00 0.00 46 1011.6
20260507184111 16 250 1.6 3.2 0.00 0.00 0.00 50 1011.7
20260507183607 16 250 4.8 4.8 0.00 0.00 0.00 48 1011.7
20260507183104 17 268 4.8 4.8 0.00 0.00 0.00 44 1011.6
20260507182600 16 261 1.6 3.2 0.00 0.00 0.00 46 1011.5
20260507182055 15 252 1.6 3.2 0.00 0.00 0.00 50 1011.6
20260507181553 15 267 1.6 3.2 0.00 0.00 0.00 48 1011.4
20260507181049 15 262 3.2 3.2 0.00 0.00 0.00 50 1011.8
20260507180545 15 248 3.2 3.2 0.00 0.00 0.00 52 1011.8
20260507180043 15 281 4.8 4.8 0.00 0.00 0.00 50 1011.9
20260507175538 15 250 0.0 1.6 0.00 0.00 0.00 53 1012.0
20260507175037 15 241 1.6 3.2 0.00 0.00 0.00 50 1011.7
20260507174533 16 248 1.6 1.6 0.00 0.00 0.00 49 1012.1
20260507174031 16 248 3.2 4.8 0.00 0.00 0.00 50 1011.9
20260507173528 16 221 4.8 8.0 0.00 0.00 0.00 48 1012.0
20260507173025 16 215 4.8 4.8 0.00 0.00 0.00 48 1012.2
20260507172521 15 250 1.6 1.6 0.00 0.00 0.00 53 1012.1
20260507172018 16 253 3.2 3.2 0.00 0.00 0.00 49 1012.1
20260507171513 16 237 4.8 4.8 0.00 0.00 0.00 48 1012.1
20260507171011 16 258 6.4 8.0 0.00 0.00 0.00 51 1012.1
20260507170507 15 251 8.0 9.7 0.00 0.00 0.00 54 1012.4
20260507170004 15 253 1.6 1.6 0.00 0.00 0.00 49 1012.4
20260507165500 15 248 4.8 4.8 0.00 0.00 0.00 52 1012.8
20260507164956 16 260 4.8 4.8 0.00 0.00 0.00 49 1012.7
20260507164453 16 251 1.6 4.8 0.00 0.00 0.00 48 1012.5
20260507163950 16 247 1.6 3.2 0.00 0.00 0.00 49 1012.6
20260507163447 16 271 3.2 3.2 0.00 0.00 0.00 52 1012.8
20260507162944 15 207 4.8 4.8 0.00 0.00 0.00 51 1012.8
20260507162439 16 250 6.4 8.0 0.00 0.00 0.00 50 1012.6
20260507161937 15 224 1.6 3.2 0.00 0.00 0.00 51 1012.6
20260507161433 15 257 3.2 4.8 0.00 0.00 0.00 54 1012.7
20260507160930 15 248 1.6 1.6 0.00 0.00 0.00 53 1012.9
20260507160426 14 298 3.2 3.2 0.00 0.00 0.00 49 1012.9
20260507155921 13 251 3.2 3.2 0.00 0.00 0.00 57 1012.9
20260507155418 15 248 3.2 4.8 0.00 0.00 0.00 51 1013.0
20260507154915 15 253 3.2 3.2 0.00 0.00 0.00 49 1012.9
20260507154412 15 216 4.8 4.8 0.00 0.00 0.00 54 1013.2
20260507153909 15 251 1.6 1.6 0.00 0.00 0.00 51 1013.2
20260507153405 14 246 1.6 3.2 0.00 0.00 0.00 55 1013.2
20260507152902 15 257 3.2 3.2 0.00 0.00 0.00 57 1013.1
20260507152358 13 214 0.0 0.0 0.00 0.00 0.00 60 1013.3
20260507151854 13 255 0.0 1.6 0.00 0.00 0.00 54 1013.2
20260507151351 14 325 3.2 4.8 0.00 0.00 0.00 53 1013.3
20260507150848 14 253 3.2 3.2 0.00 0.00 0.00 54 1013.4
20260507150345 15 248 1.6 3.2 0.00 0.00 0.00 55 1013.3
20260507145841 14 259 1.6 1.6 0.00 0.00 0.00 54 1013.2
20260507145338 14 244 1.6 3.2 0.00 0.00 0.00 55 1013.5
20260507144834 13 210 1.6 1.6 0.00 0.00 0.00 55 1013.5
20260507144332 13 229 3.2 4.8 0.00 0.00 0.00 56 1013.6
20260507143828 13 250 0.0 1.6 0.00 0.00 0.00 61 1013.7
20260507143325 13 330 3.2 4.8 0.00 0.00 0.00 55 1013.6
20260507142821 13 237 1.6 1.6 0.00 0.00 0.00 63 1013.8
20260507142318 12 249 1.6 3.2 0.00 0.00 0.00 62 1014.1
20260507141815 12 248 1.6 1.6 0.00 0.00 0.00 61 1013.9
20260507141311 12 249 1.6 1.6 0.00 0.00 0.00 60 1013.9
20260507140808 12 235 1.6 1.6 0.00 0.00 0.00 65 1014.2
20260507140305 12 228 1.6 3.2 0.00 0.00 0.00 62 1014.4
20260507135802 12 269 1.6 1.6 0.00 0.00 0.00 61 1014.4
20260507135259 12 234 0.0 0.0 0.00 0.00 0.00 62 1014.7
20260507134756 12 239 1.6 1.6 0.00 0.00 0.00 64 1014.4
20260507134252 12 219 3.2 3.2 0.00 0.00 0.00 61 1014.4
20260507133748 12 249 0.0 0.0 0.00 0.00 0.00 66 1014.4
20260507133245 12 231 3.2 3.2 0.00 0.00 0.00 67 1014.2
20260507132743 12 231 0.0 1.6 0.00 0.00 0.00 70 1014.7
20260507132239 12 242 0.0 1.6 0.00 0.00 0.00 72 1014.7
20260507131736 11 235 1.6 1.6 0.00 0.00 0.00 70 1014.3
20260507131233 11 239 0.0 0.0 0.00 0.00 0.00 76 1014.4
20260507130729 11 254 0.0 1.6 0.00 0.00 0.00 74 1014.6
20260507130227 11 234 0.0 1.6 0.00 0.00 0.00 74 1014.6
20260507125726 11 234 0.0 1.6 0.00 0.00 0.00 76 1014.7
20260507125223 10 238 1.6 3.2 0.00 0.00 0.00 81 1014.7
20260507124720 10 248 0.0 0.0 0.00 0.00 0.00 79 1014.9
20260507124217 10 248 0.0 0.0 0.00 0.00 0.00 88 1014.8
20260507123715 10 269 1.6 1.6 0.00 0.00 0.00 89 1014.3
20260507123212 9 243 0.0 0.0 0.00 0.00 0.00 92 1014.8
20260507122707 9 217 0.0 0.0 0.00 0.00 0.00 93 1014.6
20260507122203 9 241 0.0 0.0 0.00 0.00 0.00 94 1014.8
20260507121659 8 252 0.0 0.0 0.00 0.00 0.00 96 1014.9
20260507121155 8 230 0.0 0.0 0.00 0.00 0.00 97 1014.8
20260507120652 8 236 0.0 0.0 0.00 0.00 0.00 99 1014.8
20260507120148 8 235 0.0 0.0 0.00 0.00 0.00 99 1014.8
20260507115645 8 246 0.0 0.0 0.00 0.00 0.00 99 1014.8
20260507115140 8 244 0.0 0.0 0.00 0.00 0.00 99 1014.6
20260507114636 8 248 0.0 0.0 0.00 0.00 0.00 99 1014.6
20260507114208 8 252 0.0 0.0 0.00 0.00 0.00 99 979.7
20260507114134 8 260 0.0 0.0 0.00 0.00 0.00 99 1014.6
20260507113631 8 248 0.0 0.0 0.00 0.00 0.00 99 1014.2
20260507113128 8 248 0.0 0.0 0.00 0.00 0.00 99 1014.6
20260507112626 8 251 0.0 0.0 0.00 0.00 0.00 99 1014.4
20260507112122 7 252 0.0 0.0 0.00 0.00 0.00 99 1014.1
20260507111620 7 250 0.0 0.0 0.00 0.00 0.00 99 1014.3
20260507111116 7 253 0.0 0.0 0.00 0.00 0.00 99 1014.3
20260507110612 7 252 0.0 0.0 0.00 0.00 0.00 99 1014.1
20260507110109 7 251 0.0 0.0 0.00 0.00 0.00 99 1014.1
20260507105606 7 247 0.0 0.0 0.00 0.00 0.00 99 1014.1
20260507105102 7 251 0.0 0.0 0.00 0.00 0.00 99 1013.9
20260507104600 7 253 0.0 0.0 0.00 0.00 0.00 99 1013.8
20260507104056 7 247 0.0 0.0 0.00 0.00 0.00 99 1014.0
20260507103552 7 248 0.0 0.0 0.00 0.00 0.00 99 1013.8
20260507103049 7 242 0.0 0.0 0.00 0.00 0.00 99 1013.7
20260507102545 7 262 0.0 0.0 0.00 0.00 0.00 99 1013.7
20260507102042 7 247 0.0 0.0 0.00 0.00 0.00 99 1013.6
20260507101537 7 247 0.0 0.0 0.00 0.00 0.00 99 1013.5
20260507101034 7 247 0.0 0.0 0.00 0.00 0.00 99 1013.5
20260507100531 7 247 0.0 0.0 0.00 0.00 0.00 99 1013.6
20260507100029 7 247 0.0 0.0 0.00 0.00 0.00 99 1013.9
20260507095527 7 246 0.0 0.0 0.00 0.00 0.00 99 1013.6
20260507095023 7 239 0.0 0.0 0.00 0.00 0.00 98 1013.4
20260507094519 7 238 0.0 0.0 0.00 0.00 0.00 97 1013.7
20260507094016 8 237 0.0 0.0 0.00 0.00 0.00 97 1013.7
20260507093514 8 240 0.0 0.0 0.00 0.00 0.00 96 1013.5
20260507093013 8 239 0.0 0.0 0.00 0.00 0.00 94 1013.8
20260507092509 8 231 0.0 0.0 0.00 0.00 0.00 94 1013.4
20260507092005 8 242 0.0 0.0 0.00 0.00 0.00 93 1013.6
20260507091502 8 243 0.0 0.0 0.00 0.00 0.00 92 1013.6
20260507090958 9 238 0.0 0.0 0.00 0.00 0.00 92 1013.4
20260507090454 9 242 0.0 0.0 0.00 0.00 0.00 93 1013.4
20260507085950 9 242 0.0 0.0 0.00 0.00 0.00 93 1013.5
20260507085448 10 242 0.0 0.0 0.00 0.00 0.00 95 1013.5
20260507084944 10 238 0.0 0.0 0.00 0.00 0.00 95 1013.4
20260507084441 10 238 0.0 0.0 0.00 0.00 0.00 95 1013.5
20260507083938 10 238 0.0 0.0 0.00 0.00 0.00 94 1013.4
20260507083435 10 238 0.0 0.0 0.00 0.00 0.00 94 1013.5
20260507082931 10 237 0.0 0.0 0.00 0.00 0.00 96 1013.5
20260507082427 10 245 0.0 0.0 0.00 0.00 0.00 96 1013.4
20260507081924 10 246 0.0 0.0 0.00 0.00 0.00 95 1013.6
20260507081420 10 212 0.0 0.0 0.00 0.00 0.00 97 1013.5
20260507080917 10 236 0.0 0.0 0.00 0.00 0.00 97 1013.5
20260507080414 10 237 0.0 0.0 0.00 0.00 0.00 96 1013.5
20260507075909 10 237 0.0 0.0 0.00 0.00 0.00 95 1013.4
20260507075405 10 237 0.0 0.0 0.00 0.00 0.00 94 1013.4
20260507074902 10 237 0.0 0.0 0.00 0.00 0.00 94 1013.5
20260507074359 10 236 0.0 0.0 0.00 0.00 0.00 94 1013.4
20260507073856 10 236 0.0 0.0 0.00 0.00 0.00 94 1013.6
20260507073352 10 236 0.0 0.0 0.00 0.00 0.00 94 1013.5
20260507072850 10 235 0.0 1.6 0.00 0.00 0.00 94 1013.4
20260507072347 10 235 0.0 0.0 0.00 0.00 0.00 96 1013.5
20260507071844 10 237 0.0 0.0 0.00 0.00 0.00 96 1013.2
20260507071342 10 232 0.0 1.6 0.00 0.00 0.00 96 1013.6
20260507070837 10 232 0.0 0.0 0.00 0.00 0.00 95 1013.4
20260507070335 10 233 0.0 0.0 0.00 0.00 0.00 94 1013.2
20260507065832 10 237 0.0 0.0 0.00 0.00 0.00 95 1013.2
20260507065328 10 237 0.0 0.0 0.00 0.00 0.00 95 1013.2
20260507064826 10 238 0.0 0.0 0.00 0.00 0.00 96 1013.4
20260507064324 10 238 0.0 0.0 0.00 0.00 0.00 94 1013.3
20260507063822 10 238 0.0 0.0 0.00 0.00 0.00 94 1013.4
20260507063318 10 237 0.0 0.0 0.00 0.00 0.00 94 1013.2
20260507062815 10 239 0.0 0.0 0.00 0.00 0.00 95 1013.2
20260507062312 11 240 0.0 0.0 0.00 0.00 0.00 97 1013.2
20260507061810 10 235 0.0 0.0 0.00 0.00 0.00 96 1013.5
20260507061308 10 235 0.0 0.0 0.00 0.00 0.00 95 1013.2
20260507060806 11 235 0.0 0.0 0.00 0.00 0.00 95 1013.4
20260507060302 11 234 0.0 0.0 0.00 0.00 0.00 95 1013.6
20260507055759 11 236 0.0 0.0 0.00 0.00 0.00 94 1013.4
20260507055254 11 236 0.0 0.0 0.00 0.00 0.00 94 1013.6
20260507054751 11 236 0.0 0.0 0.00 0.00 0.00 93 1013.4
20260507054247 11 236 0.0 0.0 0.00 0.00 0.00 93 1013.4
20260507053745 11 230 0.0 0.0 0.00 0.00 0.00 93 1013.5
20260507053242 11 236 0.0 0.0 0.00 0.00 0.00 94 1013.2
20260507052741 11 237 0.0 0.0 0.00 0.00 0.00 94 1013.5
20260507052237 11 239 0.0 0.0 0.00 0.00 0.00 95 1013.6
20260507051735 11 237 0.0 0.0 0.00 0.00 0.00 95 1013.8
20260507051232 11 240 0.0 0.0 0.00 0.00 0.00 96 1014.0
20260507050728 11 244 0.0 0.0 0.00 0.00 0.00 97 1013.8
20260507050226 10 238 0.0 0.0 0.00 0.00 0.00 99 1013.9
20260507045722 10 236 1.6 1.6 0.00 1.57 1.57 99 1014.1
20260507045218 11 236 1.6 1.6 0.00 1.57 1.57 99 1013.9
20260507044716 11 228 0.0 0.0 0.00 1.57 1.57 99 1013.7
20260507044212 11 255 0.0 0.0 0.00 1.57 1.57 99 1013.8